Weather in Comodoro Rivadavia

Argentina     45°50′23″S   67°29′14″W
temp.,
°C
wind,
m/s
gust,
m/s
humid.,
%
clouds,
%
prec.,
mm/h
press.,
hPa
HPBL,
m
15 august, mon
mon1500:00+6wnw142246100 0.0 995651
03:00+5wnw13215069 0.0 994671
06:00+5w1017570 0.0 995469
09:00+4w8165638 0.0 996437
12:00+8w131841100 0.0 9941058
15:00+9wnw132142100 0.0 9901482
18:00+8wnw162445100 0.0 9861097
21:00+7w1220490 0.0 988706
16 august, tue
tue1600:00+5sw915410 0.0 993644
03:00+5wsw1017450 0.0 994577
06:00+4w1018420 0.0 996672
09:00+3w817410 0.0 997565
12:00+6w1417350 0.0 9971352
15:00+8w1315314 0.0 9951721
18:00+7w11144589 0.0 995989
21:00+6w611413 0.0 996296
17 august, wed
wed1700:00+5w915478 0.0 998484
03:00+5wsw101542100 0.0 999778
06:00+4wsw81443100 0.0 1001635
09:00+4wsw713425 0.0 1004468
12:00+5ssw1012405 0.0 10081425
15:00+7ssw11143725 0.1 10112331
18:00+6ssw11164887 0.1 10161792
21:00+4ssw711669 0.1 1021681
18 august, thu
thu1800:00+3sw47705 0.0 1024197
03:00+2wnw33745 0.0 102544
06:00+2nw34595 0.0 102446
09:00+2nw34625 0.0 102463
12:00+7nw5742100 0.0 1023621
15:00+9wnw684163 0.0 1021672
18:00+9wnw46455 0.0 1021337
21:00+7wnw455920 0.0 102167
19 august, fri
fri1900:00+6wnw57695 0.0 1020117
03:00+6wnw68725 0.0 1017138
06:00+7wnw69672 0.0 1014129
09:00+7wnw586426 0.0 1013108
12:00+11w5125097 0.0 1013548
15:00+13w5114591 0.0 1011674
18:00+13wnw4848100 0.0 1010268
21:00+12w51252100 0.0 1009313